Orbital Elements at Epoch 2459200.5 (2020-Dec-17.0) TDB
Reference: JPL 22 (heliocentric ecliptic J2000)
Element | Value | Uncertainty (1-sigma) | Units |
e | .1686352568225635 | 3.6124e-08 | |
a | 2.157157659058991 | 5.0322e-09 | au |
q | 1.793384823216818 | 7.6942e-08 | au |
i | 1.563863132236751 | 4.6192e-06 | deg |
node | 187.2121230718186 | 0.00012293 | deg |
peri | 151.4583177644213 | 0.00012365 | deg |
M | 48.63649485899933 | 1.3019e-05 | deg |
tp | 2459044.156069599898 (2020-Jul-13.65606960) | 4.175e-05 | TDB |
period | 1157.234194347421 3.17 | 4.0494e-06 1.109e-08 | d yr |
n | .311086555995702 | 1.0886e-09 | deg/d |
Q | 2.520930494901163 | 5.8808e-09 | au |
|
| | Orbit Determination Parameters
Additional Information
|